Theta_e
304 305 306 305 303 295 298 300 297 300 304 302 298 305 309 307 304 300 309 308 312 317 320 322 325 326 327 329 330 332 332 333 334 335 336 337 338 338 338 338 338 342 341 341 336 335 336 338 338 340 342 343 343 344 345 344 345 347 346 349 348 348 348
304 304 305 304 303 302 297 295 297 302 303 301 298 295 296 295 296 300 307 303 305 308 304 320 322 322 323 324 327 330 332 331 329 332 335 337 338 338 340 340 343 343 343 343 343 335 337 337 339 340 342 344 344 345 346 345 346 346 346 348 349 349 348
301 302 304 301 303 302 302 298 300 299 294 295 294 300 291 292 293 297 302 304 305 307 308 316 317 320 320 321 325 328 330 331 331 332 335 338 339 339 340 340 340 342 344 343 341 342 337 337 340 341 343 344 344 345 347 346 346 348 347 348 350 350 350
300 298 299 294 296 301 301 303 300 301 296 292 291 294 297 300 295 297 298 304 300 308 309 316 318 320 320 321 322 323 326 328 330 332 334 336 337 339 341 341 342 343 344 343 343 343 343 340 338 341 343 345 344 345 347 346 347 349 348 347 350 350 351
298 296 293 294 293 294 297 295 294 297 297 298 295 296 301 298 297 297 295 294 299 306 315 320 321 322 321 321 321 323 325 328 330 332 332 334 336 337 340 341 342 345 344 345 346 347 347 346 346 343 344 344 345 345 347 347 345 347 349 348 349 350 351
291 292 295 297 296 296 295 292 294 294 293 293 290 288 300 302 298 292 294 291 302 313 321 320 321 321 320 322 323 323 325 327 329 332 334 335 334 337 339 341 344 344 344 346 347 347 346 344 344 343 344 345 346 345 347 348 347 348 350 350 349 350 351
292 296 299 302 299 297 295 296 295 295 293 293 288 285 295 302 302 304 299 298 302 316 320 323 322 321 322 324 323 322 324 325 326 329 332 333 334 335 338 341 343 344 345 346 348 347 346 346 345 346 347 347 347 347 348 349 348 348 351 351 351 351 352
294 296 297 300 300 298 298 296 296 295 294 293 292 291 301 299 301 297 295 297 304 316 320 321 323 321 321 320 321 322 323 325 326 327 329 331 333 334 335 337 339 342 344 344 344 344 345 346 346 346 346 347 348 348 349 349 349 348 350 351 352 351 351
288 290 291 297 299 295 293 294 296 297 302 304 302 304 301 299 299 299 297 294 303 313 320 319 319 318 318 318 319 321 320 324 326 326 327 328 331 333 333 334 336 338 338 338 339 341 343 344 345 344 344 345 346 347 348 349 348 350 350 351 350 349 351
283 282 283 287 290 290 292 295 297 306 308 307 305 299 296 291 298 300 299 300 308 315 318 318 317 316 315 317 319 320 321 322 324 325 325 326 327 328 331 333 335 335 336 337 338 339 341 343 344 345 346 347 347 346 346 347 348 350 350 351 348 348 348
284 285 286 292 301 293 291 294 297 301 304 304 303 300 296 294 297 299 301 306 307 310 314 315 314 314 314 314 316 318 320 322 323 323 323 325 325 326 327 328 331 333 334 335 337 338 339 341 342 344 346 346 348 347 346 347 349 348 348 349 348 347 348
292 292 293 295 298 292 294 295 296 300 303 304 304 301 297 302 301 290 301 310 307 309 313 314 313 313 314 315 316 318 320 321 321 321 323 325 324 326 327 327 327 328 330 333 336 337 338 339 340 342 344 346 346 345 346 346 347 348 348 348 348 349 348
294 293 292 294 294 293 294 295 297 299 301 304 303 301 305 305 301 298 305 310 308 310 312 313 313 313 314 315 317 319 321 321 321 321 320 320 321 323 324 325 325 325 326 327 329 334 338 339 339 341 342 343 344 345 345 346 347 347 350 348 347 347 347
294 294 293 294 295 296 298 300 305 305 305 305 306 305 306 304 302 307 309 308 308 311 312 313 314 316 316 317 320 320 319 319 320 319 319 319 320 320 323 324 325 325 326 327 328 330 333 337 339 340 340 340 341 341 342 343 343 346 348 346 346 346 346
292 294 295 294 294 296 295 295 300 307 307 308 308 308 308 310 308 309 309 307 306 311 314 314 315 317 317 317 317 318 318 319 319 319 318 318 318 319 320 323 324 324 326 327 328 329 331 334 336 336 337 337 339 340 340 341 341 343 343 342 342 343 343
289 293 293 292 293 294 294 294 294 294 302 304 306 305 308 307 304 306 307 304 304 308 313 314 314 314 314 313 314 315 316 317 317 317 318 317 317 318 319 320 322 323 324 326 326 328 328 331 333 334 334 335 336 336 338 339 341 342 341 340 339 340 342
288 292 294 293 291 289 289 290 293 295 301 306 307 308 311 310 310 305 303 304 310 310 313 311 312 313 312 313 314 314 314 315 315 315 315 316 315 315 317 318 319 318 320 322 325 326 327 329 330 333 334 333 332 334 334 336 338 338 338 338 338 338 339
289 292 293 293 287 283 285 293 298 298 305 307 305 305 308 309 309 307 309 308 309 311 311 311 310 311 311 313 314 316 314 313 313 313 313 313 313 313 314 316 316 317 319 321 324 326 326 327 329 332 332 333 331 331 332 332 332 333 333 334 335 335 337
288 290 291 288 281 284 293 298 300 299 306 309 306 306 307 307 308 309 307 308 309 311 312 312 312 312 313 314 314 314 315 314 313 312 311 311 313 313 314 315 317 318 319 320 321 323 324 326 326 326 326 329 330 330 330 329 330 330 330 331 332 332 333
290 288 285 281 285 294 297 299 311 312 311 310 309 305 307 308 308 309 307 308 309 310 311 312 313 313 313 313 314 314 314 314 312 311 310 311 312 312 313 314 314 315 316 317 318 319 323 321 322 322 323 326 327 328 330 329 329 330 330 330 330 332 331
287 287 286 287 292 294 295 296 301 297 302 307 306 299 300 306 310 309 307 308 309 310 311 312 312 312 312 309 308 313 314 313 313 312 311 311 312 313 314 315 315 316 317 317 318 319 319 320 321 321 322 323 324 324 324 324 324 325 327 328 329 330 330
288 285 285 284 282 283 288 294 298 301 301 309 309 305 299 306 312 311 309 308 309 309 310 310 310 311 307 303 303 308 313 314 312 312 312 313 314 314 314 314 315 315 315 316 318 317 317 318 319 321 323 322 321 321 321 321 321 321 322 322 325 327 326
288 285 283 282 279 283 290 294 298 299 301 311 310 304 296 304 308 311 311 309 309 309 308 308 310 307 302 300 302 306 312 312 311 310 311 313 313 313 314 314 314 315 315 317 317 317 316 316 317 320 321 322 319 318 319 319 319 319 320 322 322 323 323
290 284 283 285 287 288 296 297 299 298 298 305 304 292 293 304 308 311 311 310 310 309 309 310 309 304 300 300 302 309 311 310 310 311 311 311 312 312 313 313 314 315 317 316 314 314 314 315 317 319 319 319 321 318 316 316 317 318 319 320 322 322 323
291 292 286 287 289 295 299 298 298 301 302 296 290 286 297 305 307 311 312 311 312 312 311 310 307 308 308 307 308 309 309 309 309 311 312 312 312 312 313 315 319 312 312 313 313 313 313 315 316 318 318 317 316 317 315 314 315 317 318 320 322 322 323
284 282 281 283 286 292 297 298 301 302 299 286 282 291 297 303 309 310 313 312 312 312 311 309 306 306 308 310 309 308 309 309 310 311 312 312 313 314 318 318 315 311 312 311 312 312 313 315 316 316 317 317 315 313 312 313 314 316 317 318 319 320 322
286 283 282 283 281 293 303 302 296 299 290 287 288 296 302 304 307 310 311 311 312 312 306 306 307 307 308 308 308 308 309 310 310 310 310 310 310 310 310 312 315 313 310 310 310 311 312 313 314 314 316 315 313 312 310 312 314 315 316 316 318 319 322
283 281 282 283 288 292 301 299 291 295 300 299 300 300 299 302 305 309 309 308 310 308 306 306 307 307 307 306 307 308 308 309 308 308 308 308 309 309 311 312 312 315 310 310 310 311 312 312 312 312 313 313 314 312 310 313 314 316 315 316 317 319 321
289 287 287 291 294 298 303 303 301 304 306 305 302 302 301 302 302 304 307 304 306 307 307 307 306 306 306 306 307 306 306 307 307 307 307 308 308 309 310 311 314 311 309 308 309 310 310 311 311 311 311 312 313 310 310 315 314 314 315 317 318 318 316
296 297 297 299 303 303 303 303 304 304 304 304 303 304 302 302 302 304 306 304 306 306 307 306 305 306 306 306 306 306 306 306 306 308 306 307 308 309 310 310 310 309 309 309 309 309 308 309 310 312 310 310 310 309 312 314 314 314 316 317 318 317 316
290 290 294 300 301 301 301 301 302 303 304 304 303 303 302 302 302 303 304 306 307 306 307 307 306 306 307 306 306 306 305 306 306 306 306 306 307 307 307 309 310 308 309 309 309 309 307 307 308 310 308 310 310 310 312 313 313 313 315 316 317 315 314
288 290 295 299 301 301 302 302 300 301 303 305 305 303 303 303 303 303 302 304 304 305 305 306 306 306 306 305 305 305 305 305 305 305 305 305 306 307 308 308 308 307 307 307 308 308 308 305 308 309 308 308 308 309 311 312 311 312 314 315 314 312 313
294 297 298 300 300 300 302 304 304 303 302 304 305 304 304 304 303 303 303 304 303 304 304 305 306 305 304 305 305 305 304 304 304 304 305 306 306 306 306 307 309 307 308 308 308 308 306 306 307 307 307 307 308 308 309 309 308 310 312 313 314 312 313
290 291 296 298 295 295 298 302 303 304 303 303 303 303 303 303 303 302 303 302 303 304 304 305 306 304 304 304 305 304 304 304 303 304 305 305 305 304 305 308 308 309 310 308 307 308 305 306 307 307 306 306 307 309 308 308 308 309 310 311 311 310 312
288 293 296 299 296 298 301 303 305 304 304 304 304 303 303 303 303 303 303 301 301 302 303 306 306 305 305 304 304 304 304 303 304 306 305 304 304 304 305 306 305 307 307 309 309 308 306 308 308 308 306 305 305 307 307 307 307 307 306 309 310 309 313
299 299 299 300 299 300 303 304 305 305 305 306 305 305 305 304 305 305 304 303 303 301 303 304 306 306 305 305 305 304 303 303 304 305 305 305 304 305 306 306 307 307 306 307 306 307 306 307 305 305 306 305 304 306 306 307 307 306 306 307 307 307 309
300 302 301 302 302 303 305 306 306 308 311 307 305 305 307 306 308 308 305 303 302 303 303 304 304 306 306 305 305 304 303 303 306 306 307 308 306 306 306 306 306 306 306 305 304 305 305 305 305 306 304 304 304 305 306 306 306 306 306 307 306 306 310
Wind_Speed
4 7 7 3 6 5 4 8 9 5 6 8 5 4 6 8 6 3 1 2 0 2 2 2 4 6 6 6 6 7 7 8 8 7 6 5 4 2 3 4 2 5 6 5 7 8 9 11 11 12 12 12 13 11 11 11 10 9 10 9 9 7 6
2 2 2 3 0 6 5 4 6 2 2 5 6 3 1 3 4 1 0 1 1 2 1 2 2 7 7 6 5 6 7 9 10 7 5 6 5 4 2 3 2 3 5 5 3 6 8 10 13 13 13 12 12 12 13 13 11 11 10 9 9 7 7
2 3 6 5 2 2 9 6 3 4 1 1 2 6 2 4 2 3 2 4 1 2 0 0 2 5 5 6 6 5 9 9 10 9 7 5 4 3 3 3 2 2 6 6 5 4 6 8 10 12 12 12 10 9 11 12 13 13 13 10 9 7 7
0 2 5 4 1 4 3 5 3 0 5 3 3 2 4 6 5 4 1 1 3 3 1 2 2 6 5 5 6 7 6 1 7 8 7 6 5 3 6 4 2 1 4 6 6 5 5 6 7 8 9 8 10 9 9 9 8 6 7 8 8 9 8
2 4 1 6 7 5 1 3 2 1 2 2 6 2 2 6 7 4 6 2 5 2 2 1 4 7 6 6 7 7 6 7 5 3 5 4 4 6 6 5 4 4 3 3 5 4 4 3 3 6 8 10 9 7 7 7 8 8 8 8 7 7 6
1 1 3 5 8 7 7 6 4 6 6 3 4 1 2 3 6 5 5 4 1 2 2 6 7 6 7 4 8 7 7 7 7 5 7 8 5 5 7 5 4 5 3 3 4 4 3 4 4 7 7 6 6 9 9 9 8 8 9 9 9 7 7
2 1 2 3 4 4 5 7 4 3 2 6 5 4 2 4 2 4 2 6 0 1 1 2 5 5 6 5 7 8 7 6 6 7 8 7 6 4 5 6 6 6 4 3 5 6 5 5 4 3 6 8 8 8 7 6 7 5 5 5 6 7 7
5 4 5 4 4 5 5 3 2 4 3 4 7 6 7 7 4 4 2 3 2 3 1 1 3 5 4 5 6 9 7 6 6 6 8 8 7 6 6 7 6 6 6 5 6 7 6 6 6 5 3 3 4 4 5 6 7 6 5 4 2 2 3
3 3 5 8 6 5 2 1 0 3 6 7 5 9 4 7 5 5 8 6 4 3 1 1 8 6 6 8 7 6 7 6 6 7 7 7 8 8 10 8 6 8 8 7 6 6 6 6 6 5 4 4 4 4 5 7 6 6 6 6 7 6 4
5 4 1 1 1 1 4 1 3 3 12 15 7 4 1 4 1 3 4 5 3 5 3 8 7 7 6 5 7 6 5 6 7 7 8 8 7 7 8 8 9 9 7 6 7 7 7 7 6 6 6 5 3 2 3 3 6 6 6 5 6 7 8
6 2 3 4 1 1 3 1 3 3 4 4 7 6 5 7 5 5 1 6 15 10 11 9 9 7 8 7 5 7 7 8 8 7 7 7 7 8 8 7 6 7 9 9 8 8 8 8 8 7 7 6 4 4 6 5 3 2 2 5 5 4 2
2 3 0 1 5 3 1 3 1 2 4 5 8 9 5 7 12 1 1 14 16 13 13 11 10 7 6 6 5 6 8 9 9 9 9 10 10 9 7 8 8 9 8 8 8 8 8 7 6 6 6 6 6 6 5 4 6 6 5 2 3 5 5
5 4 4 3 5 4 2 4 2 4 4 6 6 2 9 11 9 11 13 14 15 14 12 11 11 11 9 10 9 7 8 9 9 10 11 10 9 7 8 8 8 9 9 8 8 8 7 7 8 8 7 7 7 7 6 5 6 6 4 2 1 2 4
9 9 7 5 9 5 9 9 6 4 7 7 10 8 3 4 4 11 17 9 8 9 11 12 11 9 9 7 5 8 8 8 8 10 10 11 10 9 8 8 8 9 8 8 8 8 7 8 8 7 8 8 8 7 7 7 7 6 5 5 2 2 0
5 8 7 7 8 10 11 8 11 9 9 11 7 9 12 16 14 13 13 14 10 2 7 9 8 9 8 8 5 8 9 8 9 8 9 10 10 10 9 9 8 9 10 10 10 10 10 9 9 10 8 8 7 7 6 7 8 8 9 8 7 5 5
5 5 7 4 5 9 10 7 9 8 5 9 3 7 4 9 12 14 14 11 8 6 9 10 11 11 12 10 8 8 7 8 7 8 8 9 9 8 9 8 8 9 9 10 10 10 10 8 9 9 8 8 8 7 6 7 6 6 7 8 6 6 7
2 5 4 4 5 8 9 7 6 4 1 1 3 3 1 12 20 15 13 12 10 13 14 15 12 12 11 10 9 9 8 7 8 8 9 9 8 8 8 8 8 7 8 9 9 9 8 8 8 7 6 7 7 5 6 5 4 5 7 7 8 8 7
3 7 8 3 6 4 1 5 3 2 2 8 8 3 5 5 2 4 4 13 12 13 13 15 15 14 12 11 6 8 11 10 8 8 8 8 7 7 8 7 7 5 6 7 8 9 8 8 9 8 6 7 6 5 6 5 6 6 8 8 9 8 8
2 6 5 7 3 3 5 8 7 2 4 12 13 10 7 2 10 16 15 13 14 12 11 12 12 9 9 8 10 6 6 9 9 10 8 8 8 8 8 7 7 7 7 8 8 9 8 7 7 7 6 5 5 5 5 7 7 7 8 9 9 9 8
2 3 4 4 3 2 5 5 6 9 7 10 15 10 8 5 4 13 13 9 9 11 12 11 11 13 11 9 5 6 4 5 10 10 8 7 8 9 7 8 6 7 7 7 7 6 5 8 7 7 6 5 7 7 7 8 8 9 9 9 9 7 7
1 0 1 1 2 2 2 2 4 2 2 7 12 6 2 4 2 9 13 10 10 13 12 12 12 11 11 9 4 2 5 4 4 9 9 9 9 10 8 9 8 6 6 7 6 7 8 9 8 7 6 7 8 9 9 9 9 10 10 10 9 8 6
3 3 3 2 2 0 3 4 5 2 3 2 2 11 2 3 3 5 16 15 13 14 13 14 14 13 13 8 4 1 3 4 7 6 7 9 10 10 9 8 8 8 7 7 8 9 9 9 8 6 6 7 8 9 8 8 9 9 9 8 7 7 7
3 4 4 2 3 3 4 6 5 6 5 4 2 8 1 2 3 5 13 15 13 15 16 14 13 11 10 7 6 4 5 5 6 10 7 8 8 8 9 10 10 8 8 8 7 8 9 9 7 7 7 8 9 8 7 7 8 8 8 7 7 6 7
2 4 3 1 3 1 2 3 4 5 5 2 6 5 5 7 6 4 9 15 14 11 11 11 7 11 11 10 8 7 8 7 6 9 11 9 9 8 8 7 7 7 6 9 9 9 8 5 5 6 6 8 8 7 7 7 9 8 7 5 5 4 5
1 5 0 2 2 3 3 2 5 5 1 4 5 5 8 7 8 6 7 14 13 13 11 8 9 4 8 11 9 9 8 8 6 4 6 7 8 9 9 8 8 9 8 9 8 6 4 5 5 5 6 8 8 7 7 9 9 7 6 5 5 5 5
2 1 4 3 3 5 2 3 1 4 1 1 2 4 1 8 10 7 9 12 13 15 14 6 5 8 10 13 12 12 11 11 8 8 8 8 7 6 7 9 8 8 8 8 7 7 5 6 5 5 6 8 7 8 8 9 7 5 6 6 5 5 5
1 4 3 2 1 2 1 4 3 3 2 5 3 2 1 1 7 11 9 10 9 9 7 6 12 15 15 15 14 12 11 12 11 10 10 10 10 9 8 8 7 9 8 7 7 6 6 7 7 6 7 7 6 6 8 7 6 6 6 6 6 5 5
2 1 1 1 2 2 2 0 2 2 2 2 5 5 3 2 5 8 8 4 6 8 12 12 14 16 15 10 11 11 10 10 9 8 8 7 8 7 7 8 8 8 8 7 8 7 7 7 7 6 7 6 6 7 7 5 6 7 7 7 5 6 6
1 1 2 2 2 4 4 2 2 1 0 1 4 5 3 6 3 3 8 7 6 10 12 13 15 13 13 14 13 14 11 10 10 10 9 9 9 9 9 8 7 7 9 9 8 7 6 6 5 6 6 7 7 8 5 4 6 6 6 6 5 6 6
1 1 2 2 2 3 3 4 2 3 3 2 3 7 8 2 3 5 11 9 11 10 14 15 10 14 13 13 11 11 11 10 8 8 7 7 7 8 8 7 7 8 9 9 9 7 5 4 4 4 5 6 7 4 5 6 6 6 6 6 6 6 6
4 1 4 4 2 4 7 5 4 4 3 2 2 5 4 4 5 5 6 12 10 11 12 17 14 11 12 12 10 10 10 10 10 9 10 8 9 9 9 8 8 8 9 8 7 7 5 2 4 4 5 5 4 4 5 6 6 6 6 6 6 6 7
2 1 2 3 1 1 3 4 4 4 3 4 4 4 4 5 4 6 6 8 9 7 8 11 14 12 9 12 10 9 9 10 8 8 8 8 6 6 8 7 8 8 9 8 7 6 5 3 4 4 5 4 4 4 4 4 5 5 5 6 5 6 7
1 1 2 1 3 6 7 9 5 3 4 2 4 4 6 6 8 6 4 3 7 6 8 7 11 11 6 7 9 9 8 7 7 8 8 8 9 8 7 6 8 10 8 8 7 6 5 4 5 5 5 4 4 4 3 3 3 4 5 6 6 6 6
0 2 2 1 5 1 2 5 5 5 3 5 3 3 5 6 8 5 7 4 2 6 9 10 10 12 8 8 9 11 9 9 8 8 8 7 8 6 5 7 8 8 8 9 7 6 4 4 5 5 5 4 4 4 4 3 4 4 5 4 4 6 6
1 2 3 2 3 4 1 0 3 4 3 5 6 4 2 2 1 3 9 6 4 5 4 7 13 11 12 10 9 9 8 8 9 10 10 9 6 6 7 9 7 8 7 7 7 6 5 5 5 5 4 3 3 3 3 3 4 4 4 4 4 5 5
0 1 2 4 1 2 1 1 0 3 3 6 4 4 3 3 1 1 1 6 11 5 5 4 6 13 10 11 10 11 7 7 8 8 8 9 8 7 7 9 9 8 7 6 7 7 5 5 5 5 4 3 3 2 3 3 3 3 4 3 5 5 5
1 2 2 2 3 2 1 1 1 1 2 3 3 3 3 4 4 2 1 3 3 8 11 7 5 6 12 10 9 11 10 8 9 11 9 7 8 9 8 8 9 8 7 6 6 6 5 5 5 4 4 3 2 2 2 3 3 4 5 4 5 6 5
Wind_Direction
176 180 150 203 138 155 209 124 178 198 171 120 110 41 65 93 64 61 37 124 77 286 250 6 25 77 69 76 94 117 131 144 150 154 150 145 143 145 157 124 98 118 118 134 174 190 189 178 175 178 178 178 180 178 182 188 189 186 187 189 188 187 186
289 193 135 125 66 147 98 120 221 175 96 118 123 143 349 50 112 81 4 157 203 137 267 25 4 91 63 57 79 140 133 145 167 169 144 155 157 160 167 105 75 86 106 104 99 181 190 188 182 181 182 182 183 181 181 184 186 188 192 188 186 185 186
286 26 85 40 356 25 150 178 186 111 198 151 339 103 107 112 60 137 14 341 293 231 132 195 212 112 71 42 37 115 162 157 160 167 140 124 143 135 93 91 102 92 95 93 92 138 192 202 194 185 183 181 182 188 187 184 187 190 188 188 185 184 184
300 38 82 160 301 1 28 81 54 357 100 138 117 192 161 105 133 129 262 298 236 206 181 158 211 105 100 71 53 36 28 90 153 154 140 135 141 133 122 136 162 88 89 102 112 124 152 184 192 191 183 179 184 188 185 192 194 192 186 185 181 185 189
68 183 41 169 170 133 37 51 13 21 45 217 113 45 96 148 152 167 136 201 260 304 281 76 150 115 111 109 83 60 44 77 104 102 109 93 104 120 124 147 155 116 100 94 99 94 94 80 164 181 180 183 182 174 183 182 178 180 187 191 186 190 179
143 233 234 177 168 161 147 147 163 162 127 123 97 281 357 80 115 161 151 208 276 350 21 105 109 106 116 103 90 76 50 54 72 96 128 128 128 136 129 133 123 118 116 111 92 83 78 95 124 171 175 166 166 179 180 177 176 186 185 185 186 184 186
145 275 285 209 188 122 146 125 187 162 122 108 104 135 236 64 45 86 100 104 35 10 294 63 106 119 121 107 95 86 79 59 55 70 73 77 75 68 93 106 115 116 108 76 66 58 51 60 67 100 148 167 176 177 168 166 171 179 184 196 194 179 181
301 313 306 16 41 97 66 24 75 118 143 173 162 167 168 121 148 80 20 62 172 217 188 289 127 122 103 91 96 103 89 78 63 49 61 73 81 77 66 62 62 81 92 78 75 66 62 58 57 55 61 127 145 136 136 140 147 139 128 109 100 149 177
349 351 349 5 328 47 78 146 347 110 93 81 107 96 50 98 206 176 136 166 172 174 119 80 123 122 107 102 98 99 97 81 67 64 59 58 69 69 73 71 65 64 55 57 67 75 77 80 80 68 62 64 80 115 146 145 136 141 134 124 116 99 78
144 171 185 213 267 270 279 357 32 96 124 132 117 104 54 106 241 115 122 112 94 107 134 126 116 109 94 90 102 88 86 88 91 81 74 66 64 57 72 83 81 77 82 69 63 67 69 61 57 61 58 43 31 49 64 82 126 133 126 116 125 126 128
167 200 218 255 101 25 65 329 104 120 78 51 82 102 104 156 180 106 286 157 140 147 154 138 137 129 124 121 103 108 108 99 89 82 79 80 70 64 62 70 77 87 77 74 73 67 69 73 69 68 85 90 83 63 64 46 34 41 103 123 107 94 105
193 197 192 356 141 133 184 125 74 100 115 123 126 146 196 158 110 324 264 153 139 155 154 146 143 127 119 115 118 120 116 110 102 94 86 80 77 70 71 64 59 65 64 63 70 75 72 73 80 82 88 80 73 79 90 72 50 43 2 19 115 130 139
30 25 24 41 75 62 81 39 71 113 146 127 121 342 148 147 160 178 168 162 147 155 154 147 145 149 149 145 143 124 109 112 113 107 96 86 78 63 58 54 55 57 61 63 56 56 70 84 78 69 62 59 58 64 58 87 121 137 132 72 304 175 156
26 13 20 32 79 83 53 32 34 74 95 105 112 101 62 79 78 125 140 126 122 140 148 149 151 141 132 127 131 121 113 107 100 103 99 92 86 76 61 60 65 73 61 55 60 71 63 70 77 67 58 55 57 57 61 66 70 59 65 62 21 341 19
3 359 13 37 56 76 73 40 40 47 77 70 66 101 95 83 85 108 112 118 116 109 139 130 117 119 121 125 133 111 108 111 108 98 95 97 97 94 88 80 68 70 67 62 61 62 59 56 59 59 54 52 53 53 55 59 67 69 66 55 41 27 37
340 342 3 350 36 53 66 38 25 14 38 92 136 116 181 124 137 126 118 122 150 161 129 124 128 135 138 138 131 123 119 106 105 102 93 84 81 80 90 92 92 89 85 84 77 75 72 59 57 60 58 56 50 40 36 49 47 57 73 75 57 39 39
306 295 346 350 29 38 25 342 324 336 332 117 74 47 128 148 138 131 158 184 155 148 145 137 145 143 138 137 140 126 114 109 113 109 102 98 87 82 79 78 77 74 79 81 81 86 93 95 88 76 68 64 66 56 48 37 51 64 69 64 55 46 33
260 314 329 14 54 50 255 240 273 226 191 142 107 95 110 130 110 176 141 136 130 138 143 144 148 147 148 145 142 136 137 134 127 118 113 105 102 91 81 84 80 76 70 68 70 70 73 79 84 90 86 84 71 72 70 63 62 59 62 60 61 47 33
301 332 5 49 36 241 248 304 294 192 104 86 84 71 33 15 104 97 100 119 137 142 137 137 133 124 114 116 126 125 132 133 132 129 120 108 100 92 90 83 80 81 79 72 67 56 50 48 54 57 55 60 72 58 50 54 48 56 56 61 55 53 46
350 32 19 90 225 248 314 331 58 91 79 90 88 46 17 20 84 116 111 116 120 123 124 123 124 124 120 104 98 123 131 141 137 128 122 118 105 100 102 96 82 74 69 72 69 68 53 53 51 50 49 42 53 47 39 40 35 32 35 42 49 51 52
153 212 87 166 319 354 351 14 46 7 162 150 138 123 343 343 89 125 119 116 121 122 124 123 119 115 108 101 58 44 137 133 118 119 120 114 111 114 106 101 96 89 81 70 62 61 53 47 43 36 39 52 55 50 42 37 38 34 32 30 20 16 24
110 122 66 7 25 235 272 240 269 305 237 354 31 100 22 347 75 130 125 131 132 127 127 129 130 124 112 119 142 161 147 137 114 93 102 107 111 108 107 98 92 85 76 69 55 59 55 44 33 29 39 53 58 52 44 38 40 36 33 25 14 11 3
61 56 110 178 153 242 216 277 306 323 340 84 74 72 115 275 183 170 135 134 138 139 138 138 139 130 131 152 174 189 149 132 123 118 114 114 111 109 110 108 100 88 79 76 67 56 52 45 23 32 39 48 53 49 44 42 42 37 26 15 8 2 354
75 134 89 206 206 224 351 298 303 317 334 14 58 78 238 220 202 188 146 136 139 132 132 134 129 144 140 165 185 177 151 137 136 131 130 121 111 103 97 88 96 97 93 78 65 58 54 42 33 43 46 50 48 44 35 35 35 25 12 357 344 349 2
97 95 177 337 319 277 267 287 300 326 309 72 97 181 226 176 172 168 159 147 145 144 147 164 152 217 154 149 143 140 128 113 97 90 104 114 118 117 109 105 97 86 78 82 82 76 67 55 52 48 51 51 42 36 35 33 21 1 344 344 351 354 1
41 142 110 202 240 239 243 289 269 286 37 69 211 233 220 148 158 157 165 162 162 161 163 158 123 130 125 129 137 140 143 137 134 129 123 114 103 100 107 108 99 93 87 81 74 60 45 48 47 52 61 58 43 31 30 23 0 344 352 357 356 354 359
50 42 65 34 104 291 12 309 358 37 106 230 203 153 356 168 157 152 169 173 168 144 117 123 127 125 132 143 148 145 142 138 139 139 133 126 124 120 108 96 95 98 89 78 69 58 44 45 45 50 65 65 54 40 28 359 340 350 358 0 358 0 2
140 84 116 184 214 238 282 112 192 242 200 189 170 128 92 50 134 149 140 142 154 145 134 138 136 137 137 137 137 135 140 139 133 130 126 123 120 113 108 110 110 100 94 82 72 60 54 50 47 46 58 56 46 42 19 337 347 357 359 356 353 3 3
117 193 211 250 247 240 280 182 173 174 279 151 147 102 120 133 117 137 126 134 140 147 136 136 137 141 150 150 152 145 149 143 141 139 140 134 130 125 122 121 113 107 107 99 88 72 59 59 50 48 49 56 43 31 355 355 5 2 353 353 358 0 355
275 196 199 248 347 3 3 33 51 113 70 44 88 117 113 56 131 161 144 149 145 148 140 134 149 148 152 144 145 139 143 142 141 133 127 122 123 122 120 121 119 117 107 103 100 94 72 70 69 61 54 57 52 10 357 8 4 358 358 359 360 355 348
75 121 324 40 0 343 359 356 32 44 42 50 87 86 85 118 112 103 123 135 148 153 153 147 149 149 150 142 141 139 138 142 145 145 141 145 143 139 134 140 127 112 110 108 107 102 94 71 83 75 71 59 57 31 29 10 4 355 358 1 357 353 345
99 227 303 292 291 29 8 28 14 24 23 50 35 85 109 110 107 113 127 118 123 130 134 144 141 147 150 142 143 141 144 145 149 146 145 144 137 143 138 129 113 109 111 115 112 106 99 94 87 85 71 61 47 43 31 20 6 1 1 355 351 340 335
304 337 1 336 21 20 17 7 5 345 348 2 95 96 108 115 109 95 62 79 130 122 128 127 131 131 138 139 137 136 141 143 145 148 147 145 142 140 129 127 119 123 123 115 116 109 108 104 98 79 70 56 48 46 30 21 14 17 360 349 345 340 338
346 178 225 129 113 240 324 358 353 345 353 51 19 70 117 128 127 127 118 82 63 124 136 136 136 135 146 152 147 147 157 155 152 147 143 142 140 136 118 110 118 118 120 124 120 112 108 113 102 90 76 57 40 34 24 19 16 19 3 346 347 343 337
231 244 246 204 143 115 172 248 330 24 35 69 68 41 28 355 5 141 133 116 110 136 160 162 147 152 155 171 158 149 158 162 159 152 145 144 146 133 125 116 116 121 128 125 116 107 112 111 101 99 89 71 53 25 23 12 15 7 359 355 349 338 339
71 214 209 179 116 153 199 252 55 51 71 88 86 68 64 80 92 10 336 161 151 169 166 184 175 157 163 163 161 157 158 149 151 158 161 158 148 139 137 133 136 130 132 125 122 123 123 112 110 106 94 78 64 33 19 10 7 7 358 359 345 335 322
196 211 189 203 149 177 244 193 158 71 26 79 69 44 72 51 8 27 59 338 324 161 160 184 197 174 158 168 167 160 164 168 168 163 162 145 141 142 146 140 142 140 139 133 129 129 123 122 114 104 94 71 59 42 24 14 11 4 359 353 348 336 323